Retour au catalogue

TANSEI 3

MS-T3

ActifScienceUNKNOWN
NORAD 9841·PAYLOAD·🇯🇵 Japan

Lancé Feb 19, 1977 depuis Uchinoura Space Center

Loading…

Prochains Passages (prochaines 24 heures)

TLE

FraisSource: Space-Track

Époque: Sep 14, 2026, 10:26 UTC

1 09841U 77012A   26257.43531475 -.00000055  00000-0 -48022-4 0  9995
2 09841  65.7575  69.4760 1734701 232.4914 110.5593 10.73920546943297

Suivez TANSEI 3 en temps réel avec AllMySat

Download on the App Store